Regional Weather Roundup
Issued by NWS

Home | Current Version | Previous Version | Graphics & Text | Print | Product List | Glossary On
Versions: 1 2 3 4 5 6 7 8 9 10 11 12 13 14 15 16 17 18 19 20 21 22 23 24 25 26 27 28 29 30 31 32 33 34 35 36 37 38 39 40 41 42 43 44 45 46 47 48 49 50
000
ASUS43 KDMX 231301
RWRIA

WEATHER ROUNDUP FOR IOWA
NATIONAL WEATHER SERVICE DES MOINES IA
700 AM CST THU NOV 23 2017

NOTE: "FAIR" INDICATES FEW OR NO CLOUDS BELOW 12,000 FEET WITH NO
SIGNIFICANT WEATHER AND/OR OBSTRUCTIONS TO VISIBILITY.

* - THESE STATIONS ARE NOT NWS STATIONS...THUS NOT UNDER NWS
QUALITY CONTROL.  THEY ALSO DO NOT REPORT WEATHER SUCH
AS PRECIPITATION OR FOG.

IAZ001>003-012>014-020>022-031>034-043>046-231400-
   NORTHWEST IOWA

CITY           SKY/WX    TMP DP  RH WIND       PRES   REMARKS
CARROLL *      CLOUDY    32  25  74 W9        29.98R WCI  24
CHEROKEE *     CLOUDY    29  26  87 CALM      29.99R
DENISON *      CLOUDY    27  23  86 CALM      30.00S
LE MARS *      CLOUDY    32  28  86 VRB3      30.00S
ORANGE CITY *  CLOUDY    28  27  93 W9        29.99R WCI  20
SHELDON *      CLOUDY    25  21  86 W5        29.97R WCI  19
SIOUX CITY     CLOUDY    33  29  85 NW10      30.00S WCI  25
SPENCER        CLOUDY    23  20  88 W5        29.96F WCI  17
STORM LAKE *   CLOUDY    30  25  80 NW10      29.97R WCI  21
$$

IAZ055>058-069>071-079>083-090>094-231400-
   SOUTHWEST IOWA

CITY           SKY/WX    TMP DP  RH WIND       PRES   REMARKS
ATLANTIC *     CLOUDY    25  21  86 CALM      29.99R
AUDUBON *      CLOUDY    32  25  74 NW3       29.98S
CLARINDA *       N/A     25  23  93 CALM      30.02S
COUNCIL BLFS * CLOUDY    32  27  80 CALM      29.99S
CRESTON *      CLOUDY    30  23  74 W10       29.99R WCI  21
HARLAN  *      CLOUDY    25  23  93 CALM      30.02S
LAMONI         CLOUDY    29  21  72 SW7       29.99R WCI  22
RED OAK *      CLOUDY    27  21  80 CALM      30.00S
SHENANDOAH *   CLOUDY    30  23  74 SW3       30.02R
$$

IAZ047>049-059>061-072>074-084-231400-
   CENTRAL IOWA

CITY           SKY/WX    TMP DP  RH WIND       PRES   REMARKS
AMES           CLOUDY    27  22  81 W6        29.95S WCI  20
ANKENY *       CLOUDY    30  21  69 CALM      29.98R
BOONE *        CLOUDY    32  23  69 W10       29.94S WCI  24
CHARITON *     CLOUDY    32  21  64 SW10      29.97R WCI  24
DES MOINES     CLOUDY    30  21  69 W6        29.97R WCI  24
GRINNELL*      CLOUDY    29  21  70 SW8       29.96S WCI  21
KNOXVILLE *    CLOUDY    32  19  59 SW8       29.95S WCI  25
MARSHALLTOWN   CLOUDY    25  18  74 SW5       29.94S WCI  19
NEWTON *       CLOUDY    28  19  69 SW8       29.96S WCI  20
PELLA *        CLOUDY    32  21  65 W5        29.98S WCI  27
PERRY *          N/A     31  24  75 W8        29.97R WCI  23
$$

IAZ004>006-015-016-023>025-035-036-231400-
   NORTH CENTRAL IOWA

CITY           SKY/WX    TMP DP  RH WIND       PRES   REMARKS
ALGONA *       PTCLDY    28  25  86 NW6       29.95R WCI  22
CLARION *      CLOUDY    23  19  86 W5        29.95S WCI  17
ESTHERVILLE    CLOUDY    25  22  88 NW8       29.95S WCI  16
FORT DODGE *   CLOUDY    29  23  78 NW6       29.96R WCI  23
MASON CITY     CLOUDY    22  17  81 W8        29.95R WCI  12
FOREST CITY *    N/A     27  21  80 NW7       29.94R WCI  19
WEBSTER CITY * CLOUDY    27  19  74 NW9       29.94R WCI  17
IOWA FALLS *     N/A     23  19  83 NW3       29.94S
$$

IAZ007>011-017>019-026>030-037>042-050>054-066-231400-
   NORTHEAST IOWA

CITY           SKY/WX    TMP DP  RH WIND       PRES   REMARKS
CEDAR RAPIDS   CLOUDY    26  19  74 S7        29.95S WCI  18
CHARLES CITY * CLOUDY    25  18  74 CALM      29.94S
CLINTON *      CLOUDY    26  21  81 S6        30.00S WCI  19
DECORAH *      CLOUDY    28  18  64 SW5       29.92S WCI  23
DUBUQUE        CLOUDY    25  19  78 SW8       29.95R WCI  16
MONTICELLO *   PTCLDY    27  19  74 S5        29.96S WCI  21
OELWEIN *      CLOUDY    25  21  86 S5        29.94S WCI  19
WATERLOO       CLOUDY    24  17  74 CALM      29.95R
$$

IAZ064-065-067-068-078-231400-
   EAST CENTRAL IOWA

CITY           SKY/WX    TMP DP  RH WIND       PRES   REMARKS
DAVENPORT      CLOUDY    29  20  69 S8        30.00F WCI  21
IOWA CITY      CLOUDY    28  20  71 S3        30.00S
MT. PLEASANT * CLEAR     30  20  66 S10       29.99S WCI  21
MUSCATINE *    CLOUDY    30  21  69 S6        30.00S WCI  24
QUAD CITIES    CLEAR     31  19  61 SW8       29.99F WCI  23
$$

IAZ062-063-075>077-085>089-095>099-231400-
   SOUTHEAST IOWA

CITY           SKY/WX    TMP DP  RH WIND       PRES   REMARKS
BURLINGTON     CLEAR     30  21  69 S12       29.99F WCI  20
FAIRFIELD *    CLOUDY    30  19  64 S8        29.97S WCI  23
FORT MADISON * CLEAR     34  21  60 S10       30.00F WCI  26
KEOKUK *       CLEAR     32  21  64 S9        30.00F WCI  24
OSKALOOSA *      N/A     28  22  76 SW7       29.97S WCI  21
OTTUMWA        CLOUDY    31  21  66 SW7       29.97S WCI  24
WASHINGTON *   CLOUDY    30  21  69 SW9       29.99R WCI  22
$$

ABBREVIATIONS USED IN REMARKS
   TC - TEMPERATURES IN CELSIUS
  WCI - WIND CHILL INDEX
   HX - HEAT INDEX
  VSB - VISIBILITY
$$





USA.gov is the U.S. government's official web portal to all federal, state and local government web resources and services.